User: anonymous
Location: Caltech
(34.1382°N, 118.1253°W)
Time: 00:20:45
(UTC-07:00)
Language:

COSMOS 2428 - Orbit

View from above orbital plane
View from above orbital plane
View from above satellite
View from above satellite

Ground track
Ground track

The orbit data is extracted from the following two-line orbital elements,

1 31792U 07029A   14111.16832356  .00000221  00000-0  14596-3 0  5463
2 31792 070.9472 309.0455 0011765 221.7030 245.4850 14.12306522351265
Epoch (UTC): 21 April 2014 04:02:23
Eccentricity: 0.0011765
inclination: 70.9472°
perigee height: 843 km
apogee height: 860 km
right ascension of ascending node: 309.0455°
argument of perigee: 221.7030°
revolutions per day: 14.12306522
mean anomaly at epoch: 245.4850°
orbit number at epoch: 35126

The dashed part of the orbit path shows where the satellite is in the earth's shadow,  

DLR